EW4896 Weather Reports


time (UTC)temp
C
wind
direction
speed
KPH
gust
KPH
rain 1hr
cm
rain 24hr
cm
rain mn
cm
humidity
%
barometer
mb
20260507071518 11 155 1.6 8.0 0.03 0.41 0.03 89 1004.8
20260507070020 11 138 1.6 4.8 0.00 0.38 0.00 89 1004.8
20260507064514 11 134 0.0 3.2 0.00 0.38 0.00 89 1004.5
20260507063021 11 140 1.6 4.8 0.00 0.38 0.00 89 1004.7
20260507061511 12 134 1.6 4.8 0.00 0.38 0.00 91 1004.7
20260507060012 12 140 1.6 4.8 0.00 0.38 0.00 91 1004.7
20260507054507 12 137 0.0 4.8 0.00 0.38 0.00 90 1004.7
20260507053007 12 138 1.6 4.8 0.00 0.38 0.00 91 1005.1
20260507051505 12 131 1.6 3.2 0.00 0.38 0.00 90 1005.1
20260507050006 12 142 1.6 3.2 0.00 0.38 0.00 90 1005.1
20260507044500 13 131 0.0 4.8 0.00 0.38 0.00 90 1005.3
20260507043100 13 158 1.6 4.8 0.00 0.38 0.00 91 1004.9
20260507041601 13 119 3.2 6.4 0.00 0.38 0.00 91 1004.9
20260507040051 14 116 3.2 4.8 0.00 0.38 0.00 92 1005.0
20260507034557 14 114 3.2 6.4 0.03 0.38 0.38 92 1004.8
20260507033054 14 111 3.2 4.8 0.03 0.38 0.38 92 1004.4
20260507031602 15 104 3.2 9.7 0.03 0.38 0.38 93 1004.4
20260507030053 15 105 1.6 9.7 0.03 0.38 0.38 93 1004.0
20260507024547 15 102 1.6 4.8 0.00 0.36 0.36 93 1003.8
20260507023049 15 107 1.6 6.4 0.00 0.36 0.36 93 1003.9
20260507021545 15 96 3.2 6.4 0.00 0.36 0.36 93 1003.9
20260507020048 15 108 1.6 9.7 0.00 0.36 0.36 93 1003.8
20260507014551 15 113 1.6 6.4 0.00 0.36 0.36 93 1003.8
20260507013045 15 126 1.6 6.4 0.00 0.36 0.36 93 1003.9
20260507011544 15 139 3.2 6.4 0.00 0.36 0.36 93 1003.9
20260507010044 15 102 3.2 9.7 0.00 0.36 0.36 93 1004.0
20260507004541 15 92 1.6 6.4 0.00 0.36 0.36 93 1004.0
20260507003043 15 109 1.6 6.4 0.00 0.36 0.36 93 1004.0
20260507001543 15 86 1.6 6.4 0.03 0.36 0.36 93 1003.9
20260507000041 15 109 1.6 6.4 0.08 0.36 0.36 93 1003.8
20260506234538 15 97 1.6 6.4 0.13 0.36 0.36 93 1003.6
20260506233042 15 84 1.6 9.7 0.13 0.36 0.36 93 1003.6
20260506231536 15 107 3.2 6.4 0.10 0.33 0.33 92 1003.4
20260506230034 15 99 3.2 14.5 0.05 0.25 0.25 92 1003.6
20260506224533 15 84 1.6 6.4 0.03 0.23 0.23 92 1003.8
20260506223035 15 86 1.6 6.4 0.03 0.23 0.23 92 1003.8
20260506221531 15 132 3.2 11.3 0.03 0.23 0.23 91 1003.8
20260506220030 15 104 1.6 11.3 0.03 0.20 0.20 91 1004.0
20260506214528 15 30 3.2 12.9 0.03 0.20 0.20 91 1004.0
20260506213027 15 105 1.6 6.4 0.05 0.20 0.20 91 1004.3
20260506211525 15 107 1.6 6.4 0.08 0.20 0.20 91 1004.5
20260506210027 15 103 3.2 11.3 0.08 0.18 0.18 90 1004.5
20260506204625 15 78 4.8 14.5 0.08 0.18 0.18 90 1004.5
20260506203022 16 96 1.6 9.7 0.08 0.15 0.15 90 1004.8
20260506201522 16 80 3.2 14.5 0.08 0.13 0.13 89 1004.7
20260506200020 16 92 1.6 19.3 0.08 0.10 0.10 89 1004.7
20260506194522 16 89 3.2 9.7 0.10 0.10 0.10 88 1004.7
20260506193019 17 71 1.6 9.7 0.08 0.08 0.08 88 1004.7
20260506191519 17 74 0.0 6.4 0.05 0.05 0.05 88 1004.6
20260506190015 18 71 1.6 11.3 0.03 0.03 0.03 83 1004.8
20260506184515 19 360 3.2 14.5 0.00 0.00 0.00 78 1004.9
20260506183013 20 81 1.6 14.5 0.00 0.00 0.00 75 1004.8
20260506181513 21 209 8.0 17.7 0.00 0.00 0.00 67 1004.9
20260506180012 22 226 8.0 17.7 0.00 0.00 0.00 61 1004.8
20260506174511 22 224 4.8 8.0 0.00 0.00 0.00 60 1004.8
20260506173012 22 329 4.8 16.1 0.00 0.00 0.00 60 1005.0
20260506171512 22 229 6.4 17.7 0.00 0.00 0.00 59 1005.0
20260506170008 23 207 3.2 14.5 0.00 0.00 0.00 60 1005.1
20260506164504 22 210 3.2 12.9 0.00 0.00 0.00 63 1005.2
20260506163003 21 175 3.2 12.9 0.00 0.00 0.00 64 1005.7
20260506161618 21 225 4.8 11.3 0.00 0.00 0.00 64 1005.9
20260506160058 21 252 6.4 14.5 0.00 0.00 0.00 64 1006.1
20260506154615 21 235 6.4 16.1 0.00 0.00 0.00 64 1006.3
20260506153107 21 248 4.8 24.1 0.00 0.00 0.00 64 1006.5
20260506151558 21 265 4.8 17.7 0.00 0.00 0.00 65 1006.8
20260506150052 21 223 4.8 12.9 0.00 0.00 0.00 66 1006.8
20260506144548 20 211 1.6 12.9 0.00 0.00 0.00 69 1007.0
20260506143101 20 257 4.8 11.3 0.00 0.00 0.00 69 1007.0
20260506141546 21 227 4.8 9.7 0.00 0.00 0.00 69 1006.9
20260506140045 20 249 3.2 12.9 0.00 0.00 0.00 71 1006.7
20260506134542 20 219 1.6 9.7 0.00 0.00 0.00 73 1006.9
20260506133039 19 286 1.6 14.5 0.00 0.00 0.00 75 1007.3
20260506131535 18 74 4.8 9.7 0.00 0.00 0.00 76 1007.6
20260506130034 18 72 3.2 24.1 0.00 0.00 0.00 76 1007.6
20260506124532 18 54 6.4 16.1 0.00 0.00 0.00 77 1007.5
20260506123033 17 62 1.6 6.4 0.00 0.00 0.00 79 1007.5
20260506121535 17 68 3.2 12.9 0.00 0.00 0.00 80 1007.7
20260506120028 17 34 4.8 16.1 0.00 0.00 0.00 80 1007.6
20260506114532 16 92 1.6 6.4 0.00 0.00 0.00 82 1007.9
20260506113024 16 61 1.6 4.8 0.00 0.00 0.00 82 1007.9
20260506111522 16 59 1.6 6.4 0.00 0.00 0.00 83 1008.1
20260506110021 16 74 1.6 4.8 0.00 0.00 0.00 84 1007.9
20260506104518 15 24 0.0 4.8 0.00 0.00 0.00 84 1008.0
20260506103015 15 69 0.0 6.4 0.00 0.00 0.00 84 1007.9
20260506101513 15 93 0.0 4.8 0.00 0.00 0.00 83 1008.0
20260506100012 15 82 0.0 6.4 0.00 0.00 0.00 83 1007.8
20260506094509 15 96 1.6 4.8 0.00 0.00 0.00 83 1007.7
20260506093008 15 74 0.0 6.4 0.00 0.00 0.00 82 1007.7
20260506091508 15 97 1.6 6.4 0.00 0.00 0.00 82 1007.8
20260506090005 15 97 1.6 4.8 0.00 0.00 0.00 81 1007.7
20260506084504 16 86 1.6 9.7 0.00 0.00 0.00 80 1007.9
20260506083001 16 80 1.6 4.8 0.00 0.00 0.00 80 1007.9
20260506081559 16 228 1.6 11.3 0.00 0.00 0.00 79 1007.9
20260506073058 17 237 1.6 6.4 0.00 0.00 0.00 77 1007.6